Wind_Speed
53 54 53 52 52 52 51 50 51 51 52 55 57 58 63 66 67 66 67 68 70 71 71 69 66 65 64 62 61 58 58 62 63 64 63 61 60 64 62 63 64 63 67
57 57 57 57 57 55 53 55 56 58 58 59 62 62 64 69 66 64 66 68 70 69 69 65 64 65 64 61 60 60 60 60 62 60 59 59 61 61 61 59 62 70 69
53 53 54 56 57 58 58 59 60 60 62 62 62 61 60 60 62 63 64 65 65 67 68 67 66 64 63 62 61 60 59 60 59 59 55 61 58 59 59 66 65 63 67
61 61 62 63 63 64 66 68 69 70 70 69 69 69 68 66 66 67 67 68 68 68 68 68 67 66 64 62 61 61 60 57 57 58 58 59 56 58 58 60 61 66 64
70 71 72 74 75 75 76 77 78 79 79 78 77 75 75 74 74 72 72 72 70 70 69 66 65 64 63 64 62 62 60 59 58 57 59 60 60 61 59 63 65 66 68
78 79 80 80 79 80 79 79 78 78 77 77 76 77 75 72 70 68 69 68 67 67 65 64 65 64 63 62 61 58 58 58 60 61 61 60 60 59 62 67 69 68 67
82 83 83 83 84 84 85 81 80 78 74 74 75 75 71 67 67 68 69 68 67 68 67 65 64 64 63 64 63 62 63 64 62 63 65 66 66 68 64 70 67 69 72
84 84 83 82 81 81 81 80 76 76 72 67 66 67 68 68 67 65 67 69 71 70 71 74 73 72 67 62 63 66 67 66 67 69 67 64 61 68 70 72 70 75 76
83 82 80 79 78 75 73 72 72 71 69 69 67 65 64 63 65 67 67 63 68 70 74 68 70 76 69 69 64 62 68 66 65 62 66 66 65 67 70 71 72 76 75
84 83 80 77 77 76 73 71 70 69 70 71 71 71 69 68 71 71 72 69 68 66 66 73 67 66 64 63 62 61 61 60 63 63 64 71 71 66 65 72 74 72 71
84 84 84 84 83 81 78 76 74 72 69 68 71 69 77 76 78 75 75 75 77 75 71 70 70 69 71 70 63 59 61 64 63 67 68 66 71 67 67 70 71 71 70
86 86 86 86 86 85 84 82 80 78 76 73 69 68 70 72 73 69 70 71 66 70 74 64 65 68 69 68 67 67 67 65 64 65 62 64 66 64 67 69 69 68 68
78 77 76 75 75 75 76 77 77 75 75 75 74 71 68 66 65 61 59 70 65 73 61 59 63 59 63 62 59 56 62 58 53 54 55 62 67 64 67 70 73 67 62
79 79 78 76 74 72 71 70 69 68 69 67 69 69 66 63 61 57 52 56 56 54 59 61 60 63 63 61 58 57 55 54 54 56 60 65 67 69 70 68 67 66 60
77 76 75 75 75 73 71 68 67 65 65 64 64 62 59 57 67 68 64 59 57 56 59 59 56 55 58 58 51 55 60 59 61 62 63 64 62 62 62 63 60 55 52
74 73 72 72 70 69 67 66 65 64 62 59 53 51 50 49 50 52 55 56 55 57 56 53 52 52 56 57 61 59 60 63 57 55 55 56 57 58 55 52 50 49 51
74 71 69 69 67 65 63 61 60 59 57 53 50 52 48 45 49 51 54 55 57 57 57 57 57 59 60 62 63 59 57 54 50 49 50 50 49 49 50 49 50 52 54
68 65 64 63 63 61 61 58 57 53 49 46 44 45 44 42 45 42 52 56 56 54 52 52 49 47 48 49 49 48 48 48 48 47 47 47 47 48 51 52 52 53 55
63 60 59 59 58 58 56 53 50 48 47 45 43 40 35 40 42 41 41 44 49 44 39 39 42 44 46 49 47 47 46 46 45 44 44 44 47 49 50 52 53 55 57
60 56 55 54 52 51 46 41 42 44 43 38 35 37 40 40 42 40 40 42 38 37 40 44 43 40 40 41 40 42 42 41 41 44 46 49 49 50 52 54 56 59 63
51 49 46 42 39 35 35 36 39 38 36 35 35 41 44 39 34 35 37 37 39 42 41 38 36 37 39 41 42 43 44 47 48 48 49 50 51 53 54 57 61 67 71
39 38 35 27 27 30 35 37 36 33 30 29 29 29 28 27 29 32 36 38 38 39 39 38 41 43 44 44 45 45 46 47 50 52 53 54 57 59 61 66 71 75 79
21 20 20 23 29 29 23 22 21 21 21 21 22 24 26 29 30 33 35 37 39 40 41 42 42 43 45 45 46 48 50 52 55 56 58 60 63 67 71 74 79 83 86
22 24 24 26 26 19 17 17 18 21 24 27 30 33 33 35 36 37 39 40 41 42 43 44 46 47 48 49 51 52 55 58 61 63 66 68 70 74 79 82 84 85 85
25 27 25 20 20 20 21 23 25 27 30 32 34 35 36 37 38 40 42 43 44 45 46 47 48 49 51 53 55 58 62 65 67 68 72 75 79 82 83 82 78 69 63
23 23 23 23 23 24 26 29 31 33 35 36 38 39 41 42 43 44 46 47 47 47 49 51 52 54 57 59 63 66 69 71 73 75 78 81 82 79 72 64 59 55 54
Wind_Direction
270 271 272 273 274 274 274 272 272 273 273 273 276 277 274 275 282 281 281 281 282 283 285 288 290 290 290 290 291 290 289 287 287 286 287 288 287 289 289 286 286 292 292
270 271 273 274 274 275 277 278 278 278 277 275 274 276 276 277 280 281 282 281 283 286 286 287 287 288 288 289 291 290 287 286 286 289 289 288 287 289 286 289 291 291 288
270 272 275 276 277 277 277 278 280 281 282 282 281 280 278 279 280 280 281 283 284 286 287 286 285 285 286 287 288 287 287 285 285 286 285 286 285 287 287 282 288 290 291
276 276 275 275 275 277 278 278 278 279 279 278 278 278 278 277 279 280 280 282 282 283 283 284 284 284 285 286 287 287 286 285 283 283 284 284 284 286 287 288 288 290 288
277 278 278 278 279 279 280 279 279 279 279 279 278 276 276 276 277 277 276 279 279 279 278 280 280 280 282 283 285 284 283 282 282 281 282 285 287 288 286 289 290 290 290
280 280 280 279 278 278 279 281 282 283 283 283 281 280 279 279 278 273 272 273 274 275 276 278 277 277 277 278 278 280 282 283 284 284 285 286 287 285 285 283 282 287 288
282 283 282 282 283 284 284 285 285 285 284 283 281 281 280 278 276 273 272 272 272 273 272 271 272 274 274 274 276 278 281 284 287 289 290 290 287 286 277 280 287 289 289
283 284 286 287 287 288 289 289 287 287 285 283 281 280 281 281 279 278 277 275 271 273 275 272 270 270 270 274 277 276 278 281 282 286 286 287 276 280 281 279 280 284 285
285 285 286 286 286 286 285 285 286 283 282 280 281 282 278 274 277 280 280 280 275 276 271 275 279 279 269 273 275 282 279 282 282 284 283 280 279 275 276 280 282 285 287
287 287 287 287 287 287 286 284 284 283 281 278 276 276 274 277 274 274 274 278 276 277 279 279 279 280 282 281 281 282 280 279 279 278 275 269 273 274 281 282 283 285 289
286 287 287 286 285 284 282 281 281 281 279 278 275 276 274 273 275 275 273 273 274 275 274 276 278 278 277 276 273 275 276 276 276 279 276 279 280 276 279 282 285 287 286
284 284 283 283 282 282 281 280 279 278 278 277 276 275 274 273 272 271 275 275 272 274 273 274 277 276 275 273 274 274 276 277 274 272 278 277 279 283 285 288 290 287 288
284 284 284 284 283 283 282 281 280 279 278 277 276 276 274 273 272 271 273 275 280 274 281 279 277 276 276 279 278 274 275 275 271 274 277 279 276 277 283 286 286 285 285
284 284 284 283 283 284 285 284 283 282 281 280 280 280 280 275 271 268 273 278 277 281 274 270 272 275 278 272 268 271 269 270 275 279 280 281 282 283 282 283 284 284 279
284 284 284 284 284 284 284 284 284 284 284 285 284 283 282 277 268 270 278 274 275 275 271 269 271 271 271 271 276 277 277 278 279 278 281 281 280 282 282 282 279 274 275
284 285 284 284 283 282 283 283 284 284 286 287 288 286 284 279 274 272 271 271 271 272 273 275 272 269 270 270 271 273 276 278 279 282 282 282 281 277 276 275 278 281 283
284 283 281 281 280 280 281 281 282 283 284 284 280 279 280 273 269 265 263 263 262 264 265 267 268 270 272 269 273 277 277 277 277 279 276 273 272 273 274 275 276 279 285
281 281 279 279 278 278 279 281 282 284 284 282 279 278 281 276 274 270 262 265 270 273 272 276 277 279 279 279 281 279 276 274 271 269 269 269 270 273 275 282 286 286 286
282 282 281 280 278 278 278 279 281 283 284 282 281 279 277 276 278 279 280 274 279 284 283 285 286 286 286 282 276 269 267 265 265 267 271 276 283 285 284 285 286 289 291
281 281 280 279 276 275 276 274 278 281 285 284 283 277 287 287 285 286 288 292 285 286 289 289 284 277 270 267 268 268 271 274 279 281 282 283 283 284 285 288 289 290 291
279 281 281 276 272 270 268 275 281 280 278 273 281 281 283 284 287 291 288 289 292 289 280 274 268 271 277 279 279 282 284 285 284 283 282 282 284 285 285 286 289 291 291
278 274 273 263 270 274 274 277 274 265 261 265 271 278 286 290 293 293 288 282 277 275 275 279 283 284 283 283 282 282 283 283 282 282 282 283 284 286 290 292 293 293 294
274 266 265 266 277 276 269 266 268 272 277 282 289 294 295 291 288 286 282 282 282 280 280 279 279 279 279 280 282 282 282 280 280 283 285 287 288 290 292 294 294 296 297
269 256 278 280 274 273 271 272 281 288 288 289 288 289 290 288 287 285 284 284 284 284 283 283 283 282 282 282 282 283 284 286 287 288 288 290 291 293 295 296 298 298 296
253 272 274 267 275 269 263 275 283 286 290 290 291 290 289 288 288 289 289 289 288 287 286 285 284 283 284 286 288 288 288 287 288 288 290 292 295 297 298 297 294 294 292
257 265 268 268 271 274 277 279 282 284 285 287 287 286 287 287 287 286 286 285 284 284 284 284 283 284 286 288 289 290 290 289 290 292 294 295 296 294 293 292 292 294 295
Height
5761 5759 5756 5755 5753 5752 5750 5747 5745 5742 5740 5737 5734 5731 5729 5725 5721 5717 5713 5709 5705 5701 5697 5693 5689 5684 5680 5678 5674 5670 5666 5661 5657 5655 5655 5650 5647 5643 5639 5634 5628 5622 5616
5747 5745 5743 5740 5738 5737 5735 5732 5730 5728 5725 5722 5719 5716 5713 5711 5706 5702 5698 5695 5691 5688 5683 5679 5675 5670 5666 5662 5659 5657 5652 5647 5642 5639 5638 5635 5633 5628 5623 5619 5612 5607 5601
5734 5733 5730 5727 5725 5723 5721 5718 5715 5713 5710 5708 5704 5701 5697 5694 5690 5686 5682 5679 5676 5673 5669 5666 5661 5655 5652 5647 5644 5640 5637 5634 5628 5625 5621 5620 5617 5612 5608 5604 5601 5593 5586
5719 5717 5716 5713 5711 5708 5705 5702 5700 5697 5695 5691 5688 5685 5682 5678 5674 5671 5666 5663 5660 5657 5653 5650 5646 5640 5637 5631 5628 5626 5623 5619 5615 5611 5609 5605 5602 5598 5594 5589 5584 5577 5570
5704 5701 5699 5696 5693 5689 5686 5684 5681 5678 5674 5671 5669 5666 5663 5660 5657 5652 5649 5645 5642 5639 5636 5632 5629 5624 5620 5616 5613 5609 5606 5603 5599 5596 5594 5591 5586 5582 5578 5572 5566 5560 5555
5681 5679 5677 5676 5674 5670 5666 5662 5658 5654 5650 5647 5645 5642 5640 5637 5634 5631 5627 5625 5623 5620 5618 5615 5611 5608 5604 5599 5596 5593 5590 5586 5583 5580 5577 5575 5571 5567 5561 5555 5550 5544 5539
5660 5657 5653 5651 5649 5643 5641 5638 5636 5634 5630 5626 5622 5619 5616 5614 5611 5610 5607 5605 5603 5601 5599 5596 5593 5590 5585 5581 5578 5575 5573 5570 5566 5563 5561 5557 5555 5551 5544 5538 5532 5526 5523
5639 5637 5633 5630 5627 5622 5618 5616 5613 5610 5607 5606 5603 5600 5597 5595 5590 5589 5588 5586 5585 5583 5581 5577 5573 5570 5565 5561 5560 5558 5556 5553 5550 5547 5544 5539 5536 5532 5527 5521 5514 5511 5507
5619 5616 5612 5608 5607 5604 5601 5597 5593 5591 5589 5586 5583 5581 5579 5577 5572 5570 5567 5566 5565 5564 5559 5556 5553 5552 5546 5544 5541 5540 5539 5536 5533 5529 5525 5520 5515 5512 5507 5503 5498 5494 5490
5597 5594 5590 5586 5584 5581 5578 5576 5574 5570 5568 5566 5564 5561 5559 5557 5553 5551 5548 5546 5545 5544 5541 5538 5533 5532 5529 5526 5523 5521 5520 5518 5515 5512 5506 5501 5496 5490 5488 5484 5481 5477 5472
5575 5572 5568 5564 5561 5558 5557 5553 5551 5548 5546 5544 5542 5539 5537 5534 5532 5529 5527 5525 5524 5522 5520 5517 5515 5512 5510 5508 5506 5503 5502 5499 5497 5492 5489 5485 5481 5477 5473 5469 5464 5460 5455
5553 5549 5545 5541 5536 5533 5530 5528 5526 5525 5523 5521 5520 5517 5513 5512 5510 5506 5505 5502 5501 5500 5497 5497 5494 5492 5490 5488 5487 5484 5482 5480 5479 5476 5472 5469 5465 5460 5457 5453 5448 5443 5438
5530 5526 5521 5518 5512 5508 5506 5503 5501 5499 5497 5496 5495 5495 5493 5490 5488 5487 5485 5483 5479 5480 5479 5477 5475 5471 5472 5470 5468 5466 5464 5462 5460 5458 5455 5452 5448 5443 5441 5438 5434 5427 5423
5509 5504 5500 5495 5491 5487 5483 5481 5479 5477 5475 5473 5472 5471 5470 5468 5468 5466 5466 5465 5462 5460 5461 5459 5457 5456 5454 5453 5451 5450 5448 5445 5442 5440 5437 5434 5431 5427 5424 5420 5417 5412 5408
5487 5482 5478 5474 5469 5467 5463 5460 5457 5455 5454 5451 5449 5449 5449 5448 5448 5446 5446 5445 5444 5443 5442 5440 5440 5439 5437 5436 5434 5433 5430 5428 5426 5423 5420 5418 5415 5411 5407 5404 5400 5397 5395
5465 5461 5457 5453 5450 5447 5445 5442 5438 5436 5434 5432 5431 5430 5429 5428 5426 5426 5426 5425 5425 5425 5424 5423 5423 5422 5420 5419 5417 5415 5413 5411 5409 5406 5403 5400 5397 5395 5392 5390 5388 5386 5383
5442 5440 5437 5433 5430 5427 5425 5423 5421 5419 5417 5416 5416 5415 5413 5412 5411 5410 5410 5409 5408 5407 5406 5405 5405 5404 5403 5401 5400 5398 5395 5394 5391 5390 5388 5386 5383 5381 5379 5377 5374 5371 5367
5419 5417 5415 5414 5412 5410 5408 5407 5405 5403 5402 5401 5400 5399 5398 5397 5396 5393 5393 5393 5392 5390 5389 5388 5388 5387 5385 5384 5383 5381 5379 5377 5376 5374 5373 5372 5370 5368 5366 5362 5358 5354 5351
5400 5398 5396 5396 5395 5394 5393 5392 5390 5388 5387 5386 5386 5386 5385 5383 5381 5380 5380 5380 5379 5377 5376 5376 5375 5373 5372 5371 5369 5367 5366 5365 5364 5362 5359 5358 5356 5353 5351 5348 5343 5339 5335
5382 5381 5379 5378 5378 5377 5378 5378 5377 5376 5374 5373 5372 5373 5371 5370 5369 5368 5367 5367 5365 5364 5363 5362 5361 5360 5359 5358 5357 5356 5355 5353 5350 5349 5346 5344 5341 5337 5334 5331 5326 5322 5318
5365 5364 5364 5363 5364 5364 5365 5366 5365 5364 5362 5362 5361 5361 5360 5358 5357 5356 5356 5354 5353 5352 5352 5351 5350 5349 5348 5347 5345 5343 5341 5339 5337 5334 5331 5329 5325 5322 5318 5314 5310 5305 5300
5351 5351 5351 5352 5354 5355 5354 5354 5352 5351 5351 5350 5350 5349 5348 5347 5346 5346 5345 5345 5344 5343 5342 5341 5340 5338 5336 5334 5332 5330 5328 5326 5324 5321 5317 5314 5310 5306 5302 5297 5292 5286 5279
5342 5342 5344 5344 5345 5344 5343 5343 5342 5342 5341 5341 5340 5340 5339 5338 5337 5337 5337 5336 5334 5333 5330 5329 5327 5325 5323 5321 5319 5317 5314 5311 5308 5305 5301 5297 5293 5288 5283 5277 5270 5263 5255
5334 5336 5336 5336 5335 5335 5335 5335 5334 5334 5334 5333 5332 5331 5330 5329 5328 5327 5325 5324 5322 5320 5318 5316 5314 5312 5310 5307 5305 5301 5298 5295 5291 5288 5284 5279 5273 5267 5261 5253 5246 5239 5231
5327 5328 5328 5328 5327 5327 5327 5327 5327 5327 5326 5325 5323 5322 5320 5319 5317 5315 5314 5312 5309 5307 5305 5302 5300 5297 5294 5291 5288 5284 5280 5276 5272 5268 5263 5258 5251 5243 5235 5228 5221 5214 5208
5320 5321 5320 5320 5320 5320 5320 5319 5319 5318 5316 5315 5313 5311 5309 5307 5305 5303 5300 5298 5295 5293 5290 5287 5284 5280 5277 5273 5269 5264 5260 5254 5250 5245 5239 5233 5225 5217 5211 5205 5200 5194 5189